TimeGMT,TemperatureF,Dew PointF,Humidity,Sea Level PressureIn,VisibilityMPH,Wind Direction,Wind SpeedMPH,Gust SpeedMPH,PrecipitationIn,Events,Conditions,WindDirDegrees,DateUTC
12:50 AM,39.2,32.0,75,30.54,5.0,NE,11.5,-,N/A,,Overcast,50,2013-02-27 00:50:00
1:50 AM,39.2,32.0,75,30.54,5.0,NE,11.5,-,N/A,,Haze,50,2013-02-27 01:50:00
2:50 AM,39,33,70,30.55,5,NE,9.2,,,,Haze,50,2013-02-27 02:50:00
2:50 AM,39.2,32.0,75,30.54,5.0,NE,9.2,-,N/A,,Haze,50,2013-02-27 02:50:00
3:50 AM,39.2,33.8,81,30.51,5.0,NE,8.1,-,N/A,,Haze,50,2013-02-27 03:50:00
4:50 AM,39.2,33.8,81,30.51,5.0,ENE,11.5,-,N/A,,Haze,60,2013-02-27 04:50:00
5:50 AM,39,35,79,30.54,5,ENE,10.4,,,Rain,Light Rain,60,2013-02-27 05:50:00
5:50 AM,39.2,35.6,87,30.51,5.0,ENE,10.4,-,N/A,Rain,Light Rain,60,2013-02-27 05:50:00
6:50 AM,39.2,33.8,81,30.51,2.5,NE,11.5,-,N/A,,Haze,50,2013-02-27 06:50:00
7:50 AM,39.2,33.8,81,30.54,3.1,ENE,10.4,-,N/A,,Haze,60,2013-02-27 07:50:00
8:50 AM,39,34,74,30.56,4,ENE,9.2,,,,Haze,60,2013-02-27 08:50:00
8:50 AM,39.2,33.8,81,30.54,3.7,ENE,9.2,-,N/A,,Haze,60,2013-02-27 08:50:00
9:50 AM,39.2,33.8,81,30.54,3.7,ENE,10.4,-,N/A,,Haze,60,2013-02-27 09:50:00
10:50 AM,41.0,33.8,76,30.54,3.7,ENE,11.5,-,N/A,,Haze,70,2013-02-27 10:50:00
11:50 AM,43,34,61,30.54,5,NE,8.1,,,,Haze,40,2013-02-27 11:50:00
11:50 AM,42.8,33.8,70,30.51,5.0,NE,8.1,-,N/A,,Haze,40,2013-02-27 11:50:00
12:50 PM,44.6,33.8,66,30.51,5.0,NNE,9.2,-,N/A,,Haze,20,2013-02-27 12:50:00
1:50 PM,44.6,35.6,71,30.48,5.0,NNE,11.5,-,N/A,,Haze,20,2013-02-27 13:50:00
2:50 PM,42,35,68,30.51,5,NE,10.4,,,,Haze,40,2013-02-27 14:50:00
2:50 PM,42.8,35.6,76,30.48,5.0,NE,10.4,-,N/A,,Haze,40,2013-02-27 14:50:00
3:50 PM,39.2,33.8,81,30.48,5.0,NE,13.8,-,N/A,,Haze,40,2013-02-27 15:50:00
4:50 PM,39.2,35.6,87,30.48,3.1,NE,12.7,-,N/A,,Haze,40,2013-02-27 16:50:00
5:50 PM,39.2,35.6,87,30.45,3.1,NE,13.8,-,N/A,,Haze,50,2013-02-27 17:50:00
6:50 PM,39.2,35.6,87,30.45,3.1,NE,10.4,-,N/A,,Haze,50,2013-02-27 18:50:00
7:50 PM,39.2,35.6,87,30.45,3.1,ENE,8.1,-,N/A,,Haze,60,2013-02-27 19:50:00
8:50 PM,38,34,81,30.48,3,ENE,9.2,,,,Haze,60,2013-02-27 20:50:00
8:50 PM,39.2,33.8,81,30.45,3.1,ENE,9.2,-,N/A,,Haze,60,2013-02-27 20:50:00
9:50 PM,37.4,33.8,87,30.45,3.1,ENE,9.2,-,N/A,,Haze,60,2013-02-27 21:50:00
10:50 PM,35.6,32.0,87,30.45,3.7,ENE,8.1,-,N/A,,Haze,60,2013-02-27 22:50:00
11:50 PM,35,31,79,30.47,4,NE,6.9,,,,Haze,40,2013-02-27 23:50:00
11:50 PM,35.6,30.2,81,30.45,4.3,NE,6.9,-,N/A,,Haze,40,2013-02-27 23:50:00